| time (UTC) | temp C | wind direction | speed KPH | gust KPH | rain 1hr cm | rain 24hr cm | rain mn cm | humidity % | barometer mb |
| 20260506051026 | 16 | 155 | 0.0 | 3.2 | 0.00 | 0.00 | 0.00 | 75 | 1009.6 |
| 20260506050526 | 16 | 0 | 0.0 | 4.8 | 0.00 | 0.00 | 0.00 | 75 | 1009.5 |
| 20260506045025 | 16 | 131 | 0.0 | 3.2 | 0.00 | 0.00 | 0.00 | 75 | 1009.6 |
| 20260506044543 | 16 | 153 | 0.0 | 3.2 | 0.00 | 0.00 | 0.00 | 75 | 1009.6 |
| 20260506044029 | 16 | 0 | 0.0 | 3.2 | 0.00 | 0.00 | 0.00 | 75 | 1009.6 |
| 20260506043525 | 16 | 0 | 0.0 | 3.2 | 0.00 | 0.00 | 0.00 | 75 | 1009.7 |
| 20260506043041 | 16 | 0 | 0.0 | 3.2 | 0.00 | 0.00 | 0.00 | 74 | 1009.8 |
| 20260506042529 | 16 | 197 | 0.0 | 1.6 | 0.00 | 0.00 | 0.00 | 74 | 1009.7 |
| 20260506042029 | 16 | 149 | 0.0 | 6.4 | 0.00 | 0.00 | 0.00 | 74 | 1009.7 |
| 20260506041557 | 16 | 165 | 0.0 | 6.4 | 0.00 | 0.00 | 0.00 | 74 | 1009.7 |
| 20260506041025 | 16 | 0 | 1.6 | 6.4 | 0.00 | 0.00 | 0.00 | 74 | 1009.6 |
| 20260506040529 | 16 | 176 | 0.0 | 3.2 | 0.00 | 0.00 | 0.00 | 73 | 1009.7 |
| 20260506040041 | 16 | 172 | 0.0 | 3.2 | 0.00 | 0.00 | 0.00 | 73 | 1009.7 |
| 20260506035525 | 16 | 153 | 0.0 | 6.4 | 0.00 | 0.00 | 0.00 | 73 | 1009.7 |
| 20260506035025 | 16 | 169 | 0.0 | 6.4 | 0.00 | 0.00 | 0.00 | 73 | 1009.7 |
| 20260506034548 | 16 | 167 | 0.0 | 4.8 | 0.00 | 0.00 | 0.00 | 73 | 1009.8 |
| 20260506034030 | 16 | 154 | 0.0 | 1.6 | 0.00 | 0.00 | 0.00 | 72 | 1009.8 |
| 20260506033529 | 16 | 199 | 0.0 | 4.8 | 0.00 | 0.00 | 0.00 | 72 | 1009.8 |
| 20260506033038 | 16 | 0 | 0.0 | 9.7 | 0.00 | 0.00 | 0.00 | 72 | 1009.8 |
| 20260506032526 | 16 | 135 | 1.6 | 9.7 | 0.00 | 0.00 | 0.00 | 71 | 1009.8 |
| 20260506032027 | 16 | 160 | 0.0 | 4.8 | 0.00 | 0.00 | 0.00 | 71 | 1009.6 |
| 20260506031543 | 16 | 184 | 1.6 | 4.8 | 0.00 | 0.00 | 0.00 | 71 | 1009.7 |
| 20260506031025 | 17 | 146 | 0.0 | 3.2 | 0.00 | 0.00 | 0.00 | 70 | 1009.7 |
| 20260506030528 | 17 | 151 | 0.0 | 4.8 | 0.00 | 0.00 | 0.00 | 70 | 1009.7 |
| 20260506030043 | 17 | 171 | 1.6 | 4.8 | 0.00 | 0.00 | 0.00 | 70 | 1009.6 |
| 20260506025604 | 17 | 157 | 0.0 | 4.8 | 0.00 | 0.00 | 0.00 | 70 | 1009.7 |
| 20260506025028 | 17 | 162 | 1.6 | 4.8 | 0.00 | 0.00 | 0.00 | 69 | 1009.7 |
| 20260506024540 | 17 | 160 | 0.0 | 6.4 | 0.00 | 0.00 | 0.00 | 69 | 1009.7 |
| 20260506024025 | 17 | 153 | 0.0 | 6.4 | 0.00 | 0.00 | 0.00 | 69 | 1009.6 |
| 20260506023527 | 17 | 219 | 1.6 | 4.8 | 0.00 | 0.00 | 0.00 | 69 | 1009.6 |
| 20260506023043 | 17 | 156 | 1.6 | 3.2 | 0.00 | 0.00 | 0.00 | 69 | 1009.6 |
| 20260506022528 | 17 | 156 | 1.6 | 3.2 | 0.00 | 0.00 | 0.00 | 69 | 1009.6 |
| 20260506022028 | 17 | 147 | 0.0 | 3.2 | 0.00 | 0.00 | 0.00 | 69 | 1009.5 |
| 20260506021538 | 17 | 161 | 0.0 | 3.2 | 0.00 | 0.00 | 0.00 | 69 | 1009.5 |
| 20260506021028 | 18 | 157 | 1.6 | 3.2 | 0.00 | 0.00 | 0.00 | 68 | 1009.5 |
| 20260506020528 | 18 | 150 | 0.0 | 6.4 | 0.00 | 0.00 | 0.00 | 68 | 1009.4 |
| 20260506020051 | 18 | 151 | 0.0 | 6.4 | 0.00 | 0.00 | 0.00 | 68 | 1009.4 |
| 20260506015526 | 18 | 128 | 1.6 | 6.4 | 0.00 | 0.00 | 0.00 | 67 | 1009.4 |
| 20260506015029 | 18 | 213 | 0.0 | 4.8 | 0.00 | 0.00 | 0.00 | 67 | 1009.4 |
| 20260506014544 | 18 | 164 | 1.6 | 3.2 | 0.00 | 0.00 | 0.00 | 67 | 1009.5 |
| 20260506014025 | 18 | 157 | 0.0 | 3.2 | 0.00 | 0.00 | 0.00 | 68 | 1009.4 |
| 20260506013525 | 18 | 148 | 1.6 | 3.2 | 0.00 | 0.00 | 0.00 | 67 | 1009.4 |
| 20260506013052 | 18 | 0 | 0.0 | 3.2 | 0.00 | 0.00 | 0.00 | 67 | 1009.2 |
| 20260506012527 | 18 | 162 | 1.6 | 4.8 | 0.00 | 0.00 | 0.00 | 66 | 1009.3 |
| 20260506012026 | 18 | 195 | 0.0 | 4.8 | 0.00 | 0.00 | 0.00 | 66 | 1009.2 |
| 20260506011545 | 19 | 135 | 1.6 | 4.8 | 0.00 | 0.00 | 0.00 | 65 | 1009.1 |
| 20260506011025 | 19 | 106 | 1.6 | 6.4 | 0.00 | 0.00 | 0.00 | 65 | 1009.1 |
| 20260506010530 | 19 | 150 | 0.0 | 8.0 | 0.00 | 0.00 | 0.00 | 64 | 1009.2 |
| 20260506010040 | 19 | 120 | 0.0 | 8.0 | 0.00 | 0.00 | 0.00 | 64 | 1009.1 |
| 20260506005528 | 20 | 253 | 1.6 | 8.0 | 0.00 | 0.00 | 0.00 | 63 | 1008.9 |
| 20260506005026 | 20 | 0 | 1.6 | 8.0 | 0.00 | 0.00 | 0.00 | 63 | 1008.9 |
| 20260506004546 | 20 | 150 | 3.2 | 8.0 | 0.00 | 0.00 | 0.00 | 62 | 1008.9 |
| 20260506004026 | 20 | 140 | 1.6 | 8.0 | 0.00 | 0.00 | 0.00 | 62 | 1008.8 |
| 20260506003526 | 20 | 0 | 1.6 | 8.0 | 0.00 | 0.00 | 0.00 | 62 | 1008.9 |
| 20260506003045 | 20 | 175 | 1.6 | 11.3 | 0.00 | 0.00 | 0.00 | 62 | 1008.6 |
| 20260506002525 | 20 | 113 | 3.2 | 11.3 | 0.00 | 0.00 | 0.00 | 62 | 1008.5 |
| 20260506002026 | 20 | 200 | 1.6 | 8.0 | 0.00 | 0.00 | 0.00 | 61 | 1008.5 |
| 20260506001553 | 20 | 138 | 1.6 | 9.7 | 0.00 | 0.00 | 0.00 | 61 | 1008.3 |
| 20260506001026 | 20 | 221 | 3.2 | 9.7 | 0.00 | 0.00 | 0.00 | 60 | 1008.1 |
| 20260506000526 | 20 | 0 | 1.6 | 6.4 | 0.00 | 0.00 | 0.00 | 61 | 1008.0 |
| 20260506000044 | 21 | 135 | 1.6 | 6.4 | 0.00 | 0.00 | 0.00 | 61 | 1007.8 |
| 20260505235525 | 21 | 148 | 1.6 | 6.4 | 0.00 | 0.00 | 0.00 | 60 | 1007.7 |
| 20260505235025 | 21 | 118 | 1.6 | 8.0 | 0.00 | 0.00 | 0.00 | 60 | 1007.5 |
| 20260505234543 | 21 | 188 | 3.2 | 11.3 | 0.00 | 0.00 | 0.00 | 60 | 1007.5 |
| 20260505234025 | 21 | 146 | 3.2 | 11.3 | 0.00 | 0.00 | 0.00 | 59 | 1007.4 |
| 20260505233530 | 21 | 209 | 3.2 | 8.0 | 0.00 | 0.00 | 0.00 | 59 | 1007.3 |
| 20260505233038 | 21 | 148 | 3.2 | 8.0 | 0.00 | 0.00 | 0.00 | 58 | 1007.2 |
| 20260505232525 | 22 | 154 | 1.6 | 8.0 | 0.00 | 0.00 | 0.00 | 58 | 1007.1 |
| 20260505232026 | 22 | 150 | 3.2 | 12.9 | 0.00 | 0.00 | 0.00 | 57 | 1007.1 |
| 20260505231537 | 22 | 148 | 4.8 | 12.9 | 0.00 | 0.00 | 0.00 | 56 | 1006.9 |
| 20260505231026 | 22 | 137 | 4.8 | 11.3 | 0.00 | 0.00 | 0.00 | 56 | 1006.7 |
| 20260505230528 | 22 | 160 | 3.2 | 11.3 | 0.00 | 0.00 | 0.00 | 55 | 1006.6 |
| 20260505230052 | 22 | 146 | 1.6 | 11.3 | 0.00 | 0.00 | 0.00 | 56 | 1006.7 |
| 20260505225529 | 22 | 221 | 4.8 | 12.9 | 0.00 | 0.00 | 0.00 | 56 | 1006.7 |
| 20260505225030 | 23 | 143 | 3.2 | 12.9 | 0.00 | 0.00 | 0.00 | 54 | 1006.6 |
| 20260505224535 | 23 | 143 | 4.8 | 11.3 | 0.00 | 0.00 | 0.00 | 54 | 1006.6 |
| 20260505224025 | 23 | 147 | 4.8 | 12.9 | 0.00 | 0.00 | 0.00 | 53 | 1006.5 |
| 20260505223529 | 23 | 93 | 4.8 | 16.1 | 0.00 | 0.00 | 0.00 | 52 | 1006.5 |
| 20260505223045 | 23 | 221 | 4.8 | 16.1 | 0.00 | 0.00 | 0.00 | 52 | 1006.2 |
| 20260505222527 | 24 | 157 | 6.4 | 16.1 | 0.00 | 0.00 | 0.00 | 51 | 1006.4 |
| 20260505222025 | 24 | 137 | 4.8 | 17.7 | 0.00 | 0.00 | 0.00 | 50 | 1006.1 |
| 20260505221550 | 25 | 177 | 4.8 | 17.7 | 0.00 | 0.00 | 0.00 | 50 | 1006.2 |
| 20260505221029 | 25 | 156 | 4.8 | 17.7 | 0.00 | 0.00 | 0.00 | 50 | 1006.1 |
| 20260505220525 | 25 | 193 | 6.4 | 19.3 | 0.00 | 0.00 | 0.00 | 50 | 1006.1 |
| 20260505220052 | 25 | 199 | 6.4 | 19.3 | 0.00 | 0.00 | 0.00 | 50 | 1006.0 |
| 20260505215531 | 25 | 184 | 4.8 | 19.3 | 0.00 | 0.00 | 0.00 | 49 | 1006.0 |
| 20260505215028 | 25 | 136 | 4.8 | 14.5 | 0.00 | 0.00 | 0.00 | 49 | 1005.9 |
| 20260505214539 | 25 | 158 | 6.4 | 20.9 | 0.00 | 0.00 | 0.00 | 50 | 1005.9 |
| 20260505214026 | 25 | 153 | 8.0 | 20.9 | 0.00 | 0.00 | 0.00 | 49 | 1005.8 |
| 20260505213527 | 25 | 113 | 6.4 | 20.9 | 0.00 | 0.00 | 0.00 | 49 | 1005.8 |
| 20260505213042 | 26 | 184 | 6.4 | 20.9 | 0.00 | 0.00 | 0.00 | 48 | 1005.4 |
| 20260505212527 | 26 | 174 | 6.4 | 12.9 | 0.00 | 0.00 | 0.00 | 48 | 1005.4 |
| 20260505212030 | 26 | 139 | 6.4 | 19.3 | 0.00 | 0.00 | 0.00 | 48 | 1005.5 |
| 20260505211549 | 26 | 147 | 6.4 | 19.3 | 0.00 | 0.00 | 0.00 | 48 | 1005.5 |
| 20260505211026 | 26 | 217 | 8.0 | 22.5 | 0.00 | 0.00 | 0.00 | 49 | 1005.6 |
| 20260505210525 | 26 | 132 | 8.0 | 22.5 | 0.00 | 0.00 | 0.00 | 50 | 1005.6 |
| 20260505210043 | 26 | 124 | 6.4 | 17.7 | 0.00 | 0.00 | 0.00 | 50 | 1005.7 |
| 20260505205526 | 26 | 115 | 4.8 | 20.9 | 0.00 | 0.00 | 0.00 | 49 | 1005.4 |
| 20260505205031 | 26 | 148 | 6.4 | 20.9 | 0.00 | 0.00 | 0.00 | 48 | 1005.4 |
| 20260505204542 | 26 | 214 | 6.4 | 17.7 | 0.00 | 0.00 | 0.00 | 47 | 1005.3 |
| 20260505204032 | 26 | 99 | 4.8 | 17.7 | 0.00 | 0.00 | 0.00 | 48 | 1005.4 |
| 20260505203530 | 26 | 172 | 8.0 | 24.1 | 0.00 | 0.00 | 0.00 | 48 | 1005.5 |
| 20260505203037 | 26 | 165 | 6.4 | 24.1 | 0.00 | 0.00 | 0.00 | 47 | 1005.3 |
| 20260505202530 | 26 | 167 | 3.2 | 12.9 | 0.00 | 0.00 | 0.00 | 48 | 1005.4 |
| 20260505202029 | 27 | 147 | 6.4 | 14.5 | 0.00 | 0.00 | 0.00 | 46 | 1005.3 |
| 20260505201536 | 26 | 232 | 6.4 | 14.5 | 0.00 | 0.00 | 0.00 | 47 | 1005.6 |
| 20260505201033 | 27 | 162 | 6.4 | 14.5 | 0.00 | 0.00 | 0.00 | 47 | 1005.5 |
| 20260505200530 | 26 | 201 | 8.0 | 14.5 | 0.00 | 0.00 | 0.00 | 46 | 1005.6 |
| 20260505200043 | 27 | 205 | 6.4 | 14.5 | 0.00 | 0.00 | 0.00 | 45 | 1005.6 |
| 20260505195530 | 27 | 170 | 3.2 | 16.1 | 0.00 | 0.00 | 0.00 | 52 | 1005.5 |
| 20260505195030 | 27 | 179 | 6.4 | 17.7 | 0.00 | 0.00 | 0.00 | 48 | 1005.4 |
| 20260505194545 | 27 | 217 | 6.4 | 17.7 | 0.00 | 0.00 | 0.00 | 46 | 1005.4 |
| 20260505194030 | 26 | 152 | 6.4 | 16.1 | 0.00 | 0.00 | 0.00 | 47 | 1005.6 |
| 20260505193531 | 27 | 138 | 6.4 | 12.9 | 0.00 | 0.00 | 0.00 | 45 | 1005.5 |
| 20260505193050 | 27 | 217 | 4.8 | 12.9 | 0.00 | 0.00 | 0.00 | 44 | 1005.5 |
| 20260505192535 | 27 | 192 | 4.8 | 14.5 | 0.00 | 0.00 | 0.00 | 45 | 1005.6 |
| 20260505192032 | 27 | 176 | 6.4 | 17.7 | 0.00 | 0.00 | 0.00 | 44 | 1005.8 |
| 20260505191543 | 28 | 154 | 6.4 | 24.1 | 0.00 | 0.00 | 0.00 | 35 | 1005.7 |
| 20260505191029 | 28 | 165 | 8.0 | 24.1 | 0.00 | 0.00 | 0.00 | 37 | 1005.6 |
| 20260505190530 | 28 | 206 | 6.4 | 12.9 | 0.00 | 0.00 | 0.00 | 37 | 1005.7 |
| 20260505190043 | 28 | 178 | 3.2 | 12.9 | 0.00 | 0.00 | 0.00 | 37 | 1005.9 |
| 20260505185530 | 28 | 185 | 4.8 | 25.7 | 0.00 | 0.00 | 0.00 | 38 | 1005.8 |
| 20260505185032 | 28 | 141 | 11.3 | 29.0 | 0.00 | 0.00 | 0.00 | 37 | 1005.9 |
| 20260505184536 | 28 | 211 | 11.3 | 29.0 | 0.00 | 0.00 | 0.00 | 38 | 1005.9 |
| 20260505184027 | 27 | 157 | 4.8 | 11.3 | 0.00 | 0.00 | 0.00 | 45 | 1006.0 |
| 20260505183528 | 27 | 124 | 1.6 | 11.3 | 0.00 | 0.00 | 0.00 | 52 | 1006.0 |
| 20260505183044 | 26 | 208 | 4.8 | 14.5 | 0.00 | 0.00 | 0.00 | 47 | 1006.1 |
| 20260505182530 | 26 | 143 | 6.4 | 14.5 | 0.00 | 0.00 | 0.00 | 47 | 1006.4 |
| 20260505182027 | 27 | 150 | 4.8 | 16.1 | 0.00 | 0.00 | 0.00 | 45 | 1006.2 |
| 20260505181546 | 27 | 122 | 6.4 | 16.1 | 0.00 | 0.00 | 0.00 | 48 | 1006.1 |
| 20260505181030 | 26 | 173 | 4.8 | 11.3 | 0.00 | 0.00 | 0.00 | 47 | 1006.2 |
| 20260505180530 | 27 | 129 | 6.4 | 11.3 | 0.00 | 0.00 | 0.00 | 45 | 1006.2 |
| 20260505180040 | 27 | 150 | 8.0 | 11.3 | 0.00 | 0.00 | 0.00 | 44 | 1006.5 |
| 20260505175530 | 27 | 145 | 3.2 | 12.9 | 0.00 | 0.00 | 0.00 | 46 | 1006.4 |
| 20260505175031 | 27 | 109 | 4.8 | 14.5 | 0.00 | 0.00 | 0.00 | 48 | 1006.7 |
| 20260505174549 | 27 | 152 | 6.4 | 22.5 | 0.00 | 0.00 | 0.00 | 47 | 1006.6 |
| 20260505174027 | 27 | 150 | 6.4 | 22.5 | 0.00 | 0.00 | 0.00 | 47 | 1006.7 |
| 20260505173526 | 27 | 184 | 6.4 | 14.5 | 0.00 | 0.00 | 0.00 | 47 | 1006.7 |
| 20260505173035 | 27 | 119 | 4.8 | 14.5 | 0.00 | 0.00 | 0.00 | 50 | 1006.7 |
| 20260505172526 | 27 | 139 | 3.2 | 14.5 | 0.00 | 0.00 | 0.00 | 51 | 1006.8 |
| 20260505172029 | 27 | 136 | 6.4 | 14.5 | 0.00 | 0.00 | 0.00 | 48 | 1006.8 |
| 20260505171545 | 27 | 198 | 6.4 | 14.5 | 0.00 | 0.00 | 0.00 | 49 | 1006.8 |
| 20260505171029 | 27 | 139 | 4.8 | 12.9 | 0.00 | 0.00 | 0.00 | 48 | 1006.9 |
| 20260505170528 | 26 | 163 | 3.2 | 17.7 | 0.00 | 0.00 | 0.00 | 52 | 1007.1 |
| 20260505170043 | 26 | 240 | 6.4 | 17.7 | 0.00 | 0.00 | 0.00 | 48 | 1007.2 |
| 20260505165527 | 26 | 129 | 4.8 | 11.3 | 0.00 | 0.00 | 0.00 | 53 | 1007.3 |
| 20260505165031 | 26 | 121 | 4.8 | 11.3 | 0.00 | 0.00 | 0.00 | 55 | 1007.1 |
| 20260505164544 | 26 | 192 | 6.4 | 9.7 | 0.00 | 0.00 | 0.00 | 51 | 1007.3 |
| 20260505164027 | 26 | 123 | 4.8 | 12.9 | 0.00 | 0.00 | 0.00 | 51 | 1007.5 |
| 20260505163528 | 26 | 192 | 4.8 | 12.9 | 0.00 | 0.00 | 0.00 | 52 | 1007.5 |
| 20260505163041 | 26 | 177 | 3.2 | 11.3 | 0.00 | 0.00 | 0.00 | 52 | 1007.7 |
| 20260505162529 | 25 | 165 | 6.4 | 9.7 | 0.00 | 0.00 | 0.00 | 53 | 1007.9 |
| 20260505162027 | 25 | 169 | 3.2 | 8.0 | 0.00 | 0.00 | 0.00 | 54 | 1008.1 |
| 20260505161543 | 25 | 165 | 3.2 | 11.3 | 0.00 | 0.00 | 0.00 | 53 | 1008.1 |
| 20260505161028 | 25 | 155 | 4.8 | 12.9 | 0.00 | 0.00 | 0.00 | 56 | 1008.2 |
| 20260505160528 | 25 | 261 | 3.2 | 12.9 | 0.00 | 0.00 | 0.00 | 56 | 1008.2 |
| 20260505153043 | 23 | 167 | 3.2 | 9.7 | 0.00 | 0.00 | 0.00 | 56 | 1008.7 |
| 20260505152529 | 23 | 157 | 3.2 | 9.7 | 0.00 | 0.00 | 0.00 | 58 | 1008.7 |
| 20260505152028 | 23 | 140 | 4.8 | 9.7 | 0.00 | 0.00 | 0.00 | 57 | 1008.8 |
| 20260505151538 | 23 | 119 | 3.2 | 9.7 | 0.00 | 0.00 | 0.00 | 56 | 1009.0 |
| 20260505151029 | 22 | 188 | 3.2 | 9.7 | 0.00 | 0.00 | 0.00 | 59 | 1009.0 |
| 20260505150531 | 22 | 200 | 3.2 | 9.7 | 0.00 | 0.00 | 0.00 | 60 | 1009.1 |
| 20260505140530 | 18 | 215 | 1.6 | 6.4 | 0.00 | 0.00 | 0.00 | 69 | 1009.8 |
| 20260505125030 | 15 | 166 | 0.0 | 4.8 | 0.00 | 0.00 | 0.00 | 78 | 1010.2 |
| 20260505124547 | 14 | 160 | 0.0 | 6.4 | 0.00 | 0.00 | 0.00 | 77 | 1010.3 |
| 20260505124033 | 14 | 152 | 1.6 | 6.4 | 0.00 | 0.00 | 0.00 | 78 | 1010.3 |
| 20260505123531 | 14 | 127 | 0.0 | 4.8 | 0.00 | 0.00 | 0.00 | 78 | 1010.2 |
| 20260505123043 | 13 | 159 | 1.6 | 4.8 | 0.00 | 0.00 | 0.00 | 80 | 1010.3 |
| 20260505122531 | 13 | 246 | 0.0 | 4.8 | 0.00 | 0.00 | 0.00 | 80 | 1010.2 |
| 20260505122030 | 13 | 0 | 1.6 | 3.2 | 0.00 | 0.00 | 0.00 | 81 | 1010.3 |
| 20260505121543 | 13 | 250 | 1.6 | 3.2 | 0.00 | 0.00 | 0.00 | 81 | 1010.1 |
| 20260505121030 | 12 | 139 | 0.0 | 3.2 | 0.00 | 0.00 | 0.00 | 83 | 1010.1 |
| 20260505120532 | 12 | 0 | 0.0 | 3.2 | 0.00 | 0.00 | 0.00 | 84 | 1010.3 |
| 20260505120038 | 12 | 0 | 0.0 | 1.6 | 0.00 | 0.00 | 0.00 | 85 | 1010.3 |
| 20260505115529 | 11 | 0 | 0.0 | 0.0 | 0.00 | 0.00 | 0.00 | 86 | 1010.3 |
| 20260505115030 | 11 | 0 | 0.0 | 1.6 | 0.00 | 0.00 | 0.00 | 88 | 1010.2 |
| 20260505114535 | 11 | 0 | 0.0 | 1.6 | 0.00 | 0.00 | 0.00 | 87 | 1010.2 |
| 20260505114030 | 11 | 0 | 0.0 | 1.6 | 0.00 | 0.00 | 0.00 | 87 | 1010.6 |
| 20260505113530 | 11 | 0 | 0.0 | 1.6 | 0.00 | 0.00 | 0.00 | 88 | 1010.6 |
| 20260505113044 | 10 | 0 | 0.0 | 1.6 | 0.00 | 0.00 | 0.00 | 89 | 1010.5 |
| 20260505112530 | 10 | 54 | 0.0 | 3.2 | 0.00 | 0.00 | 0.00 | 90 | 1010.3 |
| 20260505112030 | 10 | 0 | 0.0 | 3.2 | 0.00 | 0.00 | 0.00 | 90 | 1010.4 |
| 20260505111543 | 9 | 228 | 0.0 | 3.2 | 0.00 | 0.00 | 0.00 | 91 | 1010.6 |
| 20260505111030 | 9 | 0 | 0.0 | 3.2 | 0.00 | 0.00 | 0.00 | 92 | 1010.3 |
| 20260505110530 | 8 | 148 | 0.0 | 3.2 | 0.00 | 0.00 | 0.00 | 93 | 1010.2 |
| 20260505102030 | 6 | 0 | 0.0 | 0.0 | 0.00 | 0.00 | 0.00 | 93 | 1009.7 |
| 20260505101550 | 6 | 0 | 0.0 | 0.0 | 0.00 | 0.00 | 0.00 | 92 | 1009.6 |
| 20260505101030 | 6 | 0 | 0.0 | 0.0 | 0.00 | 0.00 | 0.00 | 93 | 1009.7 |
| 20260505100530 | 6 | 0 | 0.0 | 0.0 | 0.00 | 0.00 | 0.00 | 92 | 1009.7 |
| 20260505100045 | 6 | 0 | 0.0 | 0.0 | 0.00 | 0.00 | 0.00 | 93 | 1009.5 |
| 20260505095530 | 6 | 0 | 0.0 | 0.0 | 0.00 | 0.00 | 0.00 | 92 | 1009.4 |
| 20260505095030 | 6 | 0 | 0.0 | 0.0 | 0.00 | 0.00 | 0.00 | 92 | 1009.7 |
| 20260505094547 | 7 | 0 | 0.0 | 0.0 | 0.00 | 0.00 | 0.00 | 92 | 1009.5 |
| 20260505094030 | 7 | 0 | 0.0 | 0.0 | 0.00 | 0.00 | 0.00 | 91 | 1009.6 |
| 20260505093530 | 7 | 0 | 0.0 | 0.0 | 0.00 | 0.00 | 0.00 | 91 | 1009.5 |
| 20260505093043 | 7 | 0 | 0.0 | 0.0 | 0.00 | 0.00 | 0.00 | 91 | 1009.5 |
| 20260505092529 | 7 | 0 | 0.0 | 0.0 | 0.00 | 0.00 | 0.00 | 91 | 1009.5 |
| 20260505092030 | 7 | 0 | 0.0 | 0.0 | 0.00 | 0.00 | 0.00 | 91 | 1009.6 |
| 20260505091540 | 7 | 0 | 0.0 | 0.0 | 0.00 | 0.00 | 0.00 | 91 | 1009.4 |
| 20260505091029 | 7 | 0 | 0.0 | 0.0 | 0.00 | 0.00 | 0.00 | 91 | 1009.4 |
| 20260505090530 | 7 | 0 | 0.0 | 0.0 | 0.00 | 0.00 | 0.00 | 91 | 1009.5 |
| 20260505090048 | 7 | 0 | 0.0 | 0.0 | 0.00 | 0.00 | 0.00 | 91 | 1009.6 |
| 20260505085530 | 7 | 0 | 0.0 | 0.0 | 0.00 | 0.00 | 0.00 | 92 | 1009.6 |
| 20260505085030 | 7 | 0 | 0.0 | 0.0 | 0.00 | 0.00 | 0.00 | 92 | 1009.7 |
| 20260505084552 | 7 | 0 | 0.0 | 0.0 | 0.00 | 0.00 | 0.00 | 93 | 1009.7 |
| 20260505084030 | 7 | 0 | 0.0 | 0.0 | 0.00 | 0.00 | 0.00 | 93 | 1009.7 |
| 20260505083529 | 7 | 0 | 0.0 | 0.0 | 0.00 | 0.00 | 0.00 | 91 | 1009.8 |
| 20260505083055 | 7 | 0 | 0.0 | 0.0 | 0.00 | 0.00 | 0.00 | 90 | 1009.9 |
| 20260505082529 | 7 | 0 | 0.0 | 0.0 | 0.00 | 0.00 | 0.00 | 90 | 1009.8 |
| 20260505082155 | 7 | 0 | 0.0 | 0.0 | 0.00 | 0.00 | 0.00 | 89 | 1009.8 |
| 20260505081547 | 8 | 0 | 0.0 | 0.0 | 0.00 | 0.00 | 0.00 | 90 | 1009.8 |
| 20260505081030 | 8 | 0 | 0.0 | 0.0 | 0.00 | 0.00 | 0.00 | 91 | 1009.8 |
| 20260505080530 | 7 | 0 | 0.0 | 0.0 | 0.00 | 0.00 | 0.00 | 91 | 1009.8 |
| 20260505080048 | 7 | 0 | 0.0 | 0.0 | 0.00 | 0.00 | 0.00 | 92 | 1009.8 |
| 20260505075529 | 7 | 0 | 0.0 | 0.0 | 0.00 | 0.00 | 0.00 | 92 | 1009.8 |
| 20260505075030 | 7 | 0 | 0.0 | 0.0 | 0.00 | 0.00 | 0.00 | 92 | 1010.0 |
| 20260505074539 | 7 | 0 | 0.0 | 0.0 | 0.00 | 0.00 | 0.00 | 92 | 1010.1 |
| 20260505074030 | 7 | 0 | 0.0 | 0.0 | 0.00 | 0.00 | 0.00 | 92 | 1010.0 |
| 20260505073530 | 7 | 0 | 0.0 | 0.0 | 0.00 | 0.00 | 0.00 | 91 | 1010.0 |
| 20260505073046 | 7 | 0 | 0.0 | 0.0 | 0.00 | 0.00 | 0.00 | 91 | 1009.9 |
| 20260505072530 | 7 | 0 | 0.0 | 0.0 | 0.00 | 0.00 | 0.00 | 91 | 1009.8 |
| 20260505072029 | 7 | 0 | 0.0 | 0.0 | 0.00 | 0.00 | 0.00 | 91 | 1010.0 |
| 20260505071547 | 7 | 0 | 0.0 | 0.0 | 0.00 | 0.00 | 0.00 | 91 | 1010.1 |
| 20260505071032 | 7 | 0 | 0.0 | 0.0 | 0.00 | 0.00 | 0.00 | 91 | 1010.1 |
| 20260505070530 | 7 | 0 | 0.0 | 0.0 | 0.00 | 0.00 | 0.00 | 91 | 1010.1 |
| 20260505070041 | 7 | 0 | 0.0 | 0.0 | 0.00 | 0.00 | 0.00 | 91 | 1010.1 |
| 20260505065833 | 7 | 0 | 0.0 | 0.0 | 0.00 | 0.00 | 0.00 | 90 | 1010.0 |
| 20260505065029 | 7 | 0 | 0.0 | 0.0 | 0.00 | 0.00 | 0.00 | 90 | 1010.1 |
| 20260505064543 | 7 | 0 | 0.0 | 0.0 | 0.00 | 0.00 | 0.00 | 89 | 1010.2 |
| 20260505064031 | 7 | 0 | 0.0 | 0.0 | 0.00 | 0.00 | 0.00 | 89 | 1010.0 |
| 20260505063530 | 7 | 0 | 0.0 | 0.0 | 0.00 | 0.00 | 0.00 | 89 | 1010.1 |
| 20260505063042 | 7 | 0 | 0.0 | 0.0 | 0.00 | 0.00 | 0.00 | 88 | 1010.1 |
| 20260505062530 | 7 | 0 | 0.0 | 0.0 | 0.00 | 0.00 | 0.00 | 88 | 1010.3 |
| 20260505062030 | 7 | 0 | 0.0 | 0.0 | 0.00 | 0.00 | 0.00 | 86 | 1010.2 |
| 20260505061539 | 8 | 0 | 0.0 | 0.0 | 0.00 | 0.00 | 0.00 | 85 | 1010.3 |
| 20260505061030 | 8 | 0 | 0.0 | 0.0 | 0.00 | 0.00 | 0.00 | 86 | 1010.2 |
| 20260505060530 | 8 | 0 | 0.0 | 0.0 | 0.00 | 0.00 | 0.00 | 86 | 1010.3 |
| 20260505060049 | 8 | 0 | 0.0 | 0.0 | 0.00 | 0.00 | 0.00 | 85 | 1010.2 |